owner,sensor,date,latitude,longitude,vertical_datum,sea_water_temperature,qcFlag 
ENP,ioos.station.NOAA.NDBC:LSNF1:1,2017-09-01T00:00:00Z,25.2350,-80.4570,1.0,33.54,2 
ENP,ioos.station.NOAA.NDBC:LSNF1:1,2017-09-01T01:00:00Z,25.2350,-80.4570,1.0,33.49,2 
ENP,ioos.station.NOAA.NDBC:LSNF1:1,2017-09-01T04:00:00Z,25.2350,-80.4570,1.0,32.31,2 
ENP,ioos.station.NOAA.NDBC:LSNF1:1,2017-09-01T07:00:00Z,25.2350,-80.4570,1.0,33.32,2 
ENP,ioos.station.NOAA.NDBC:LSNF1:1,2017-09-01T08:00:00Z,25.2350,-80.4570,1.0,33.17,2 
ENP,ioos.station.NOAA.NDBC:LSNF1:1,2017-09-01T09:00:00Z,25.2350,-80.4570,1.0,32.77,2 
ENP,ioos.station.NOAA.NDBC:LSNF1:1,2017-09-01T11:00:00Z,25.2350,-80.4570,1.0,32.2,2 
ENP,ioos.station.NOAA.NDBC:LSNF1:1,2017-09-01T12:00:00Z,25.2350,-80.4570,1.0,32.46,2 
ENP,ioos.station.NOAA.NDBC:LSNF1:1,2017-09-01T14:00:00Z,25.2350,-80.4570,1.0,32.36,2 
ENP,ioos.station.NOAA.NDBC:LSNF1:1,2017-09-01T15:00:00Z,25.2350,-80.4570,1.0,32.46,2 
ENP,ioos.station.NOAA.NDBC:LSNF1:1,2017-09-01T16:00:00Z,25.2350,-80.4570,1.0,32.19,2 
ENP,ioos.station.NOAA.NDBC:LSNF1:1,2017-09-01T18:00:00Z,25.2350,-80.4570,1.0,32.83,2 
ENP,ioos.station.NOAA.NDBC:LSNF1:1,2017-09-01T19:00:00Z,25.2350,-80.4570,1.0,33.14,2 
ENP,ioos.station.NOAA.NDBC:LSNF1:1,2017-09-01T20:00:00Z,25.2350,-80.4570,1.0,33.87,2 
ENP,ioos.station.NOAA.NDBC:LSNF1:1,2017-09-01T21:00:00Z,25.2350,-80.4570,1.0,33.7,2 
ENP,ioos.station.NOAA.NDBC:LSNF1:1,2017-09-01T22:00:00Z,25.2350,-80.4570,1.0,33.71,2 
ENP,ioos.station.NOAA.NDBC:LSNF1:1,2017-09-02T00:00:00Z,25.2350,-80.4570,1.0,34.0,2 
ENP,ioos.station.NOAA.NDBC:LSNF1:1,2017-09-02T01:00:00Z,25.2350,-80.4570,1.0,33.78,2 
ENP,ioos.station.NOAA.NDBC:LSNF1:1,2017-09-02T04:00:00Z,25.2350,-80.4570,1.0,33.69,2 
ENP,ioos.station.NOAA.NDBC:LSNF1:1,2017-09-02T07:00:00Z,25.2350,-80.4570,1.0,33.21,2 
ENP,ioos.station.NOAA.NDBC:LSNF1:1,2017-09-02T08:00:00Z,25.2350,-80.4570,1.0,33.36,2 
ENP,ioos.station.NOAA.NDBC:LSNF1:1,2017-09-02T09:00:00Z,25.2350,-80.4570,1.0,33.58,2 
ENP,ioos.station.NOAA.NDBC:LSNF1:1,2017-09-02T11:00:00Z,25.2350,-80.4570,1.0,33.29,2 
ENP,ioos.station.NOAA.NDBC:LSNF1:1,2017-09-02T12:00:00Z,25.2350,-80.4570,1.0,32.06,2 
ENP,ioos.station.NOAA.NDBC:LSNF1:1,2017-09-02T13:00:00Z,25.2350,-80.4570,1.0,32.02,2 
ENP,ioos.station.NOAA.NDBC:LSNF1:1,2017-09-02T14:00:00Z,25.2350,-80.4570,1.0,31.84,2 
ENP,ioos.station.NOAA.NDBC:LSNF1:1,2017-09-02T15:00:00Z,25.2350,-80.4570,1.0,31.73,2 
ENP,ioos.station.NOAA.NDBC:LSNF1:1,2017-09-02T16:00:00Z,25.2350,-80.4570,1.0,31.61,2 
ENP,ioos.station.NOAA.NDBC:LSNF1:1,2017-09-02T17:00:00Z,25.2350,-80.4570,1.0,31.7,2 
ENP,ioos.station.NOAA.NDBC:LSNF1:1,2017-09-02T18:00:00Z,25.2350,-80.4570,1.0,32.04,2 
ENP,ioos.station.NOAA.NDBC:LSNF1:1,2017-09-02T19:00:00Z,25.2350,-80.4570,1.0,32.26,2 
ENP,ioos.station.NOAA.NDBC:LSNF1:1,2017-09-02T20:00:00Z,25.2350,-80.4570,1.0,32.52,2 
ENP,ioos.station.NOAA.NDBC:LSNF1:1,2017-09-02T21:00:00Z,25.2350,-80.4570,1.0,32.47,2 
ENP,ioos.station.NOAA.NDBC:LSNF1:1,2017-09-02T22:00:00Z,25.2350,-80.4570,1.0,32.49,2 
ENP,ioos.station.NOAA.NDBC:LSNF1:1,2017-09-02T23:00:00Z,25.2350,-80.4570,1.0,32.45,2 
ENP,ioos.station.NOAA.NDBC:LSNF1:1,2017-09-03T00:00:00Z,25.2350,-80.4570,1.0,32.46,2 
ENP,ioos.station.NOAA.NDBC:LSNF1:1,2017-09-03T01:00:00Z,25.2350,-80.4570,1.0,32.55,2 
ENP,ioos.station.NOAA.NDBC:LSNF1:1,2017-09-03T04:00:00Z,25.2350,-80.4570,1.0,32.1,2 
ENP,ioos.station.NOAA.NDBC:LSNF1:1,2017-09-03T07:00:00Z,25.2350,-80.4570,1.0,32.0,2 
ENP,ioos.station.NOAA.NDBC:LSNF1:1,2017-09-03T08:00:00Z,25.2350,-80.4570,1.0,31.71,2 
ENP,ioos.station.NOAA.NDBC:LSNF1:1,2017-09-03T09:00:00Z,25.2350,-80.4570,1.0,31.49,2 
ENP,ioos.station.NOAA.NDBC:LSNF1:1,2017-09-03T12:00:00Z,25.2350,-80.4570,1.0,31.57,2 
ENP,ioos.station.NOAA.NDBC:LSNF1:1,2017-09-03T13:00:00Z,25.2350,-80.4570,1.0,31.7,2 
ENP,ioos.station.NOAA.NDBC:LSNF1:1,2017-09-03T14:00:00Z,25.2350,-80.4570,1.0,31.84,2 
ENP,ioos.station.NOAA.NDBC:LSNF1:1,2017-09-03T15:00:00Z,25.2350,-80.4570,1.0,32.06,2 
ENP,ioos.station.NOAA.NDBC:LSNF1:1,2017-09-03T16:00:00Z,25.2350,-80.4570,1.0,32.3,2 
ENP,ioos.station.NOAA.NDBC:LSNF1:1,2017-09-03T17:00:00Z,25.2350,-80.4570,1.0,32.51,2 
ENP,ioos.station.NOAA.NDBC:LSNF1:1,2017-09-03T18:00:00Z,25.2350,-80.4570,1.0,32.74,2 
ENP,ioos.station.NOAA.NDBC:LSNF1:1,2017-09-03T20:00:00Z,25.2350,-80.4570,1.0,33.77,2 
ENP,ioos.station.NOAA.NDBC:LSNF1:1,2017-09-03T21:00:00Z,25.2350,-80.4570,1.0,33.69,2 
ENP,ioos.station.NOAA.NDBC:LSNF1:1,2017-09-03T22:00:00Z,25.2350,-80.4570,1.0,33.43,2 
ENP,ioos.station.NOAA.NDBC:LSNF1:1,2017-09-03T23:00:00Z,25.2350,-80.4570,1.0,33.24,2 
ENP,ioos.station.NOAA.NDBC:LSNF1:1,2017-09-04T00:00:00Z,25.2350,-80.4570,1.0,33.09,2 
ENP,ioos.station.NOAA.NDBC:LSNF1:1,2017-09-04T01:00:00Z,25.2350,-80.4570,1.0,32.86,2 
ENP,ioos.station.NOAA.NDBC:LSNF1:1,2017-09-04T04:00:00Z,25.2350,-80.4570,1.0,32.01,2 
ENP,ioos.station.NOAA.NDBC:LSNF1:1,2017-09-04T07:00:00Z,25.2350,-80.4570,1.0,31.41,2 
ENP,ioos.station.NOAA.NDBC:LSNF1:1,2017-09-04T08:00:00Z,25.2350,-80.4570,1.0,31.14,2 
ENP,ioos.station.NOAA.NDBC:LSNF1:1,2017-09-04T12:00:00Z,25.2350,-80.4570,1.0,30.5,2 
ENP,ioos.station.NOAA.NDBC:LSNF1:1,2017-09-04T14:00:00Z,25.2350,-80.4570,1.0,30.83,2 
ENP,ioos.station.NOAA.NDBC:LSNF1:1,2017-09-04T15:00:00Z,25.2350,-80.4570,1.0,31.14,2 
ENP,ioos.station.NOAA.NDBC:LSNF1:1,2017-09-04T16:00:00Z,25.2350,-80.4570,1.0,31.07,2 
ENP,ioos.station.NOAA.NDBC:LSNF1:1,2017-09-04T17:00:00Z,25.2350,-80.4570,1.0,31.45,2 
ENP,ioos.station.NOAA.NDBC:LSNF1:1,2017-09-04T18:00:00Z,25.2350,-80.4570,1.0,31.93,2 
ENP,ioos.station.NOAA.NDBC:LSNF1:1,2017-09-04T20:00:00Z,25.2350,-80.4570,1.0,32.62,2 
ENP,ioos.station.NOAA.NDBC:LSNF1:1,2017-09-04T21:00:00Z,25.2350,-80.4570,1.0,32.59,2 
ENP,ioos.station.NOAA.NDBC:LSNF1:1,2017-09-04T22:00:00Z,25.2350,-80.4570,1.0,32.51,2 
ENP,ioos.station.NOAA.NDBC:LSNF1:1,2017-09-05T00:00:00Z,25.2350,-80.4570,1.0,32.09,2 
ENP,ioos.station.NOAA.NDBC:LSNF1:1,2017-09-05T04:00:00Z,25.2350,-80.4570,1.0,31.18,2 
ENP,ioos.station.NOAA.NDBC:LSNF1:1,2017-09-05T07:00:00Z,25.2350,-80.4570,1.0,30.68,2 
ENP,ioos.station.NOAA.NDBC:LSNF1:1,2017-09-05T08:00:00Z,25.2350,-80.4570,1.0,30.57,2 
ENP,ioos.station.NOAA.NDBC:LSNF1:1,2017-09-05T11:00:00Z,25.2350,-80.4570,1.0,30.22,2 
ENP,ioos.station.NOAA.NDBC:LSNF1:1,2017-09-05T12:00:00Z,25.2350,-80.4570,1.0,30.34,2 
ENP,ioos.station.NOAA.NDBC:LSNF1:1,2017-09-05T14:00:00Z,25.2350,-80.4570,1.0,30.73,2 
ENP,ioos.station.NOAA.NDBC:LSNF1:1,2017-09-05T15:00:00Z,25.2350,-80.4570,1.0,30.81,2 
ENP,ioos.station.NOAA.NDBC:LSNF1:1,2017-09-05T16:00:00Z,25.2350,-80.4570,1.0,30.79,2 
ENP,ioos.station.NOAA.NDBC:LSNF1:1,2017-09-05T18:00:00Z,25.2350,-80.4570,1.0,31.6,2 
ENP,ioos.station.NOAA.NDBC:LSNF1:1,2017-09-05T19:00:00Z,25.2350,-80.4570,1.0,32.01,2 
ENP,ioos.station.NOAA.NDBC:LSNF1:1,2017-09-05T21:00:00Z,25.2350,-80.4570,1.0,32.67,2 
ENP,ioos.station.NOAA.NDBC:LSNF1:1,2017-09-06T00:00:00Z,25.2350,-80.4570,1.0,32.3,2 
ENP,ioos.station.NOAA.NDBC:LSNF1:1,2017-09-06T11:00:00Z,25.2350,-80.4570,1.0,30.76,2 
ENP,ioos.station.NOAA.NDBC:LSNF1:1,2017-09-19T08:00:00Z,25.2350,-80.4570,1.0,30.05,2 
ENP,ioos.station.NOAA.NDBC:LSNF1:1,2017-09-19T09:00:00Z,25.2350,-80.4570,1.0,30.53,2 
ENP,ioos.station.NOAA.NDBC:LSNF1:1,2017-09-19T17:00:00Z,25.2350,-80.4570,1.0,29.79,2 
ENP,ioos.station.NOAA.NDBC:LSNF1:1,2017-09-19T18:00:00Z,25.2350,-80.4570,1.0,30.52,2 
ENP,ioos.station.NOAA.NDBC:LSNF1:1,2017-09-19T19:00:00Z,25.2350,-80.4570,1.0,30.84,2 
ENP,ioos.station.NOAA.NDBC:LSNF1:1,2017-09-19T20:00:00Z,25.2350,-80.4570,1.0,31.24,2 
ENP,ioos.station.NOAA.NDBC:LSNF1:1,2017-09-19T21:00:00Z,25.2350,-80.4570,1.0,31.89,2 
ENP,ioos.station.NOAA.NDBC:LSNF1:1,2017-09-19T22:00:00Z,25.2350,-80.4570,1.0,31.3,2 
ENP,ioos.station.NOAA.NDBC:LSNF1:1,2017-09-19T23:00:00Z,25.2350,-80.4570,1.0,31.18,2 
ENP,ioos.station.NOAA.NDBC:LSNF1:1,2017-09-20T02:00:00Z,25.2350,-80.4570,1.0,30.7,2 
ENP,ioos.station.NOAA.NDBC:LSNF1:1,2017-09-20T05:00:00Z,25.2350,-80.4570,1.0,30.43,2 
ENP,ioos.station.NOAA.NDBC:LSNF1:1,2017-09-20T09:00:00Z,25.2350,-80.4570,1.0,30.37,2 
ENP,ioos.station.NOAA.NDBC:LSNF1:1,2017-09-20T11:00:00Z,25.2350,-80.4570,1.0,30.29,2 
ENP,ioos.station.NOAA.NDBC:LSNF1:1,2017-09-20T17:00:00Z,25.2350,-80.4570,1.0,30.46,2 
ENP,ioos.station.NOAA.NDBC:LSNF1:1,2017-09-20T18:00:00Z,25.2350,-80.4570,1.0,30.63,2 
ENP,ioos.station.NOAA.NDBC:LSNF1:1,2017-09-20T19:00:00Z,25.2350,-80.4570,1.0,30.98,2 
ENP,ioos.station.NOAA.NDBC:LSNF1:1,2017-09-20T20:00:00Z,25.2350,-80.4570,1.0,31.65,2 
ENP,ioos.station.NOAA.NDBC:LSNF1:1,2017-09-20T21:00:00Z,25.2350,-80.4570,1.0,32.12,2 
ENP,ioos.station.NOAA.NDBC:LSNF1:1,2017-09-20T22:00:00Z,25.2350,-80.4570,1.0,32.41,2 
ENP,ioos.station.NOAA.NDBC:LSNF1:1,2017-09-20T23:00:00Z,25.2350,-80.4570,1.0,32.64,2 
ENP,ioos.station.NOAA.NDBC:LSNF1:1,2017-09-21T00:00:00Z,25.2350,-80.4570,1.0,32.9,2 
ENP,ioos.station.NOAA.NDBC:LSNF1:1,2017-09-21T01:00:00Z,25.2350,-80.4570,1.0,32.59,2 
ENP,ioos.station.NOAA.NDBC:LSNF1:1,2017-09-21T03:00:00Z,25.2350,-80.4570,1.0,32.16,2 
ENP,ioos.station.NOAA.NDBC:LSNF1:1,2017-09-21T04:00:00Z,25.2350,-80.4570,1.0,32.08,2 
ENP,ioos.station.NOAA.NDBC:LSNF1:1,2017-09-21T05:00:00Z,25.2350,-80.4570,1.0,31.81,2 
ENP,ioos.station.NOAA.NDBC:LSNF1:1,2017-09-21T07:00:00Z,25.2350,-80.4570,1.0,31.36,2 
ENP,ioos.station.NOAA.NDBC:LSNF1:1,2017-09-21T08:00:00Z,25.2350,-80.4570,1.0,31.21,2 
ENP,ioos.station.NOAA.NDBC:LSNF1:1,2017-09-21T09:00:00Z,25.2350,-80.4570,1.0,31.0,2 
ENP,ioos.station.NOAA.NDBC:LSNF1:1,2017-09-21T10:00:00Z,25.2350,-80.4570,1.0,30.9,2 
ENP,ioos.station.NOAA.NDBC:LSNF1:1,2017-09-21T12:00:00Z,25.2350,-80.4570,1.0,30.79,2 
ENP,ioos.station.NOAA.NDBC:LSNF1:1,2017-09-21T13:00:00Z,25.2350,-80.4570,1.0,30.94,2 
ENP,ioos.station.NOAA.NDBC:LSNF1:1,2017-09-21T14:00:00Z,25.2350,-80.4570,1.0,31.14,2 
ENP,ioos.station.NOAA.NDBC:LSNF1:1,2017-09-21T15:00:00Z,25.2350,-80.4570,1.0,31.31,2 
ENP,ioos.station.NOAA.NDBC:LSNF1:1,2017-09-21T16:00:00Z,25.2350,-80.4570,1.0,31.37,2 
ENP,ioos.station.NOAA.NDBC:LSNF1:1,2017-09-21T17:00:00Z,25.2350,-80.4570,1.0,31.33,2 
ENP,ioos.station.NOAA.NDBC:LSNF1:1,2017-09-21T18:00:00Z,25.2350,-80.4570,1.0,31.38,2 
ENP,ioos.station.NOAA.NDBC:LSNF1:1,2017-09-21T19:00:00Z,25.2350,-80.4570,1.0,31.78,2 
ENP,ioos.station.NOAA.NDBC:LSNF1:1,2017-09-21T20:00:00Z,25.2350,-80.4570,1.0,32.24,2 
ENP,ioos.station.NOAA.NDBC:LSNF1:1,2017-09-21T21:00:00Z,25.2350,-80.4570,1.0,31.83,2 
ENP,ioos.station.NOAA.NDBC:LSNF1:1,2017-09-21T22:00:00Z,25.2350,-80.4570,1.0,32.16,2 
ENP,ioos.station.NOAA.NDBC:LSNF1:1,2017-09-21T23:00:00Z,25.2350,-80.4570,1.0,32.24,2 
ENP,ioos.station.NOAA.NDBC:LSNF1:1,2017-09-22T00:00:00Z,25.2350,-80.4570,1.0,32.04,2 
ENP,ioos.station.NOAA.NDBC:LSNF1:1,2017-09-22T01:00:00Z,25.2350,-80.4570,1.0,31.79,2 
ENP,ioos.station.NOAA.NDBC:LSNF1:1,2017-09-22T03:00:00Z,25.2350,-80.4570,1.0,31.52,2 
ENP,ioos.station.NOAA.NDBC:LSNF1:1,2017-09-22T04:00:00Z,25.2350,-80.4570,1.0,31.38,2 
ENP,ioos.station.NOAA.NDBC:LSNF1:1,2017-09-22T06:00:00Z,25.2350,-80.4570,1.0,31.19,2 
ENP,ioos.station.NOAA.NDBC:LSNF1:1,2017-09-22T07:00:00Z,25.2350,-80.4570,1.0,31.02,2 
ENP,ioos.station.NOAA.NDBC:LSNF1:1,2017-09-22T08:00:00Z,25.2350,-80.4570,1.0,30.75,2 
ENP,ioos.station.NOAA.NDBC:LSNF1:1,2017-09-22T09:00:00Z,25.2350,-80.4570,1.0,30.6,2 
ENP,ioos.station.NOAA.NDBC:LSNF1:1,2017-09-22T11:00:00Z,25.2350,-80.4570,1.0,30.48,2 
ENP,ioos.station.NOAA.NDBC:LSNF1:1,2017-09-22T12:00:00Z,25.2350,-80.4570,1.0,30.38,2 
ENP,ioos.station.NOAA.NDBC:LSNF1:1,2017-09-22T13:00:00Z,25.2350,-80.4570,1.0,30.49,2 
ENP,ioos.station.NOAA.NDBC:LSNF1:1,2017-09-22T14:00:00Z,25.2350,-80.4570,1.0,30.37,2 
ENP,ioos.station.NOAA.NDBC:LSNF1:1,2017-09-22T15:00:00Z,25.2350,-80.4570,1.0,30.62,2 
ENP,ioos.station.NOAA.NDBC:LSNF1:1,2017-09-22T16:00:00Z,25.2350,-80.4570,1.0,30.96,2 
ENP,ioos.station.NOAA.NDBC:LSNF1:1,2017-09-22T17:00:00Z,25.2350,-80.4570,1.0,31.01,2 
ENP,ioos.station.NOAA.NDBC:LSNF1:1,2017-09-22T18:00:00Z,25.2350,-80.4570,1.0,30.97,2 
ENP,ioos.station.NOAA.NDBC:LSNF1:1,2017-09-22T19:00:00Z,25.2350,-80.4570,1.0,31.15,2 
ENP,ioos.station.NOAA.NDBC:LSNF1:1,2017-09-22T20:00:00Z,25.2350,-80.4570,1.0,31.23,2 
ENP,ioos.station.NOAA.NDBC:LSNF1:1,2017-09-22T21:00:00Z,25.2350,-80.4570,1.0,31.03,2 
ENP,ioos.station.NOAA.NDBC:LSNF1:1,2017-09-22T22:00:00Z,25.2350,-80.4570,1.0,30.81,2 
ENP,ioos.station.NOAA.NDBC:LSNF1:1,2017-09-22T23:00:00Z,25.2350,-80.4570,1.0,30.73,2 
ENP,ioos.station.NOAA.NDBC:LSNF1:1,2017-09-23T00:00:00Z,25.2350,-80.4570,1.0,30.61,2 
ENP,ioos.station.NOAA.NDBC:LSNF1:1,2017-09-23T01:00:00Z,25.2350,-80.4570,1.0,30.43,2 
ENP,ioos.station.NOAA.NDBC:LSNF1:1,2017-09-23T03:00:00Z,25.2350,-80.4570,1.0,31.05,2 
ENP,ioos.station.NOAA.NDBC:LSNF1:1,2017-09-23T04:00:00Z,25.2350,-80.4570,1.0,30.41,2 
ENP,ioos.station.NOAA.NDBC:LSNF1:1,2017-09-23T06:00:00Z,25.2350,-80.4570,1.0,29.72,2 
ENP,ioos.station.NOAA.NDBC:LSNF1:1,2017-09-23T07:00:00Z,25.2350,-80.4570,1.0,29.54,2 
ENP,ioos.station.NOAA.NDBC:LSNF1:1,2017-09-23T08:00:00Z,25.2350,-80.4570,1.0,29.62,2 
ENP,ioos.station.NOAA.NDBC:LSNF1:1,2017-09-23T09:00:00Z,25.2350,-80.4570,1.0,29.62,2 
ENP,ioos.station.NOAA.NDBC:LSNF1:1,2017-09-23T11:00:00Z,25.2350,-80.4570,1.0,29.27,2 
ENP,ioos.station.NOAA.NDBC:LSNF1:1,2017-09-23T12:00:00Z,25.2350,-80.4570,1.0,29.11,2 
ENP,ioos.station.NOAA.NDBC:LSNF1:1,2017-09-23T13:00:00Z,25.2350,-80.4570,1.0,29.04,2 
ENP,ioos.station.NOAA.NDBC:LSNF1:1,2017-09-23T14:00:00Z,25.2350,-80.4570,1.0,28.97,2 
ENP,ioos.station.NOAA.NDBC:LSNF1:1,2017-09-23T15:00:00Z,25.2350,-80.4570,1.0,28.92,2 
ENP,ioos.station.NOAA.NDBC:LSNF1:1,2017-09-23T16:00:00Z,25.2350,-80.4570,1.0,29.15,2 
ENP,ioos.station.NOAA.NDBC:LSNF1:1,2017-09-23T17:00:00Z,25.2350,-80.4570,1.0,29.5,2 
ENP,ioos.station.NOAA.NDBC:LSNF1:1,2017-09-23T18:00:00Z,25.2350,-80.4570,1.0,29.82,2 
ENP,ioos.station.NOAA.NDBC:LSNF1:1,2017-09-23T19:00:00Z,25.2350,-80.4570,1.0,29.71,2 
ENP,ioos.station.NOAA.NDBC:LSNF1:1,2017-09-23T20:00:00Z,25.2350,-80.4570,1.0,29.8,2 
ENP,ioos.station.NOAA.NDBC:LSNF1:1,2017-09-23T21:00:00Z,25.2350,-80.4570,1.0,29.85,2 
ENP,ioos.station.NOAA.NDBC:LSNF1:1,2017-09-23T22:00:00Z,25.2350,-80.4570,1.0,29.9,2 
ENP,ioos.station.NOAA.NDBC:LSNF1:1,2017-09-23T23:00:00Z,25.2350,-80.4570,1.0,29.93,2 
ENP,ioos.station.NOAA.NDBC:LSNF1:1,2017-09-24T00:00:00Z,25.2350,-80.4570,1.0,29.92,2 
ENP,ioos.station.NOAA.NDBC:LSNF1:1,2017-09-24T01:00:00Z,25.2350,-80.4570,1.0,29.87,2 
ENP,ioos.station.NOAA.NDBC:LSNF1:1,2017-09-24T03:00:00Z,25.2350,-80.4570,1.0,29.9,2 
ENP,ioos.station.NOAA.NDBC:LSNF1:1,2017-09-24T04:00:00Z,25.2350,-80.4570,1.0,29.92,2 
ENP,ioos.station.NOAA.NDBC:LSNF1:1,2017-09-24T06:00:00Z,25.2350,-80.4570,1.0,29.57,2 
ENP,ioos.station.NOAA.NDBC:LSNF1:1,2017-09-24T07:00:00Z,25.2350,-80.4570,1.0,29.5,2 
ENP,ioos.station.NOAA.NDBC:LSNF1:1,2017-09-24T08:00:00Z,25.2350,-80.4570,1.0,29.52,2 
ENP,ioos.station.NOAA.NDBC:LSNF1:1,2017-09-24T09:00:00Z,25.2350,-80.4570,1.0,29.62,2 
ENP,ioos.station.NOAA.NDBC:LSNF1:1,2017-09-24T11:00:00Z,25.2350,-80.4570,1.0,29.73,2 
ENP,ioos.station.NOAA.NDBC:LSNF1:1,2017-09-24T12:00:00Z,25.2350,-80.4570,1.0,29.83,2 
ENP,ioos.station.NOAA.NDBC:LSNF1:1,2017-09-24T13:00:00Z,25.2350,-80.4570,1.0,29.86,2 
ENP,ioos.station.NOAA.NDBC:LSNF1:1,2017-09-24T14:00:00Z,25.2350,-80.4570,1.0,29.92,2 
ENP,ioos.station.NOAA.NDBC:LSNF1:1,2017-09-24T15:00:00Z,25.2350,-80.4570,1.0,29.99,2 
ENP,ioos.station.NOAA.NDBC:LSNF1:1,2017-09-24T16:00:00Z,25.2350,-80.4570,1.0,30.15,2 
ENP,ioos.station.NOAA.NDBC:LSNF1:1,2017-09-24T17:00:00Z,25.2350,-80.4570,1.0,30.59,2 
ENP,ioos.station.NOAA.NDBC:LSNF1:1,2017-09-24T18:00:00Z,25.2350,-80.4570,1.0,30.67,2 
ENP,ioos.station.NOAA.NDBC:LSNF1:1,2017-09-24T19:00:00Z,25.2350,-80.4570,1.0,30.82,2 
ENP,ioos.station.NOAA.NDBC:LSNF1:1,2017-09-24T20:00:00Z,25.2350,-80.4570,1.0,30.93,2 
ENP,ioos.station.NOAA.NDBC:LSNF1:1,2017-09-24T21:00:00Z,25.2350,-80.4570,1.0,31.13,2 
ENP,ioos.station.NOAA.NDBC:LSNF1:1,2017-09-24T22:00:00Z,25.2350,-80.4570,1.0,31.26,2 
ENP,ioos.station.NOAA.NDBC:LSNF1:1,2017-09-24T23:00:00Z,25.2350,-80.4570,1.0,31.28,2 
ENP,ioos.station.NOAA.NDBC:LSNF1:1,2017-09-25T00:00:00Z,25.2350,-80.4570,1.0,31.31,2 
ENP,ioos.station.NOAA.NDBC:LSNF1:1,2017-09-25T01:00:00Z,25.2350,-80.4570,1.0,31.26,2 
ENP,ioos.station.NOAA.NDBC:LSNF1:1,2017-09-25T03:00:00Z,25.2350,-80.4570,1.0,31.02,2 
ENP,ioos.station.NOAA.NDBC:LSNF1:1,2017-09-25T04:00:00Z,25.2350,-80.4570,1.0,30.89,2 
ENP,ioos.station.NOAA.NDBC:LSNF1:1,2017-09-25T05:00:00Z,25.2350,-80.4570,1.0,30.91,2 
ENP,ioos.station.NOAA.NDBC:LSNF1:1,2017-09-25T07:00:00Z,25.2350,-80.4570,1.0,30.59,2 
ENP,ioos.station.NOAA.NDBC:LSNF1:1,2017-09-25T08:00:00Z,25.2350,-80.4570,1.0,30.56,2 
ENP,ioos.station.NOAA.NDBC:LSNF1:1,2017-09-25T09:00:00Z,25.2350,-80.4570,1.0,30.69,2 
ENP,ioos.station.NOAA.NDBC:LSNF1:1,2017-09-25T11:00:00Z,25.2350,-80.4570,1.0,31.04,2 
ENP,ioos.station.NOAA.NDBC:LSNF1:1,2017-09-25T12:00:00Z,25.2350,-80.4570,1.0,31.04,2 
ENP,ioos.station.NOAA.NDBC:LSNF1:1,2017-09-25T13:00:00Z,25.2350,-80.4570,1.0,30.85,2 
ENP,ioos.station.NOAA.NDBC:LSNF1:1,2017-09-25T14:00:00Z,25.2350,-80.4570,1.0,30.58,2 
ENP,ioos.station.NOAA.NDBC:LSNF1:1,2017-09-25T15:00:00Z,25.2350,-80.4570,1.0,30.34,2 
ENP,ioos.station.NOAA.NDBC:LSNF1:1,2017-09-25T16:00:00Z,25.2350,-80.4570,1.0,30.15,2 
ENP,ioos.station.NOAA.NDBC:LSNF1:1,2017-09-25T17:00:00Z,25.2350,-80.4570,1.0,30.24,2 
ENP,ioos.station.NOAA.NDBC:LSNF1:1,2017-09-25T18:00:00Z,25.2350,-80.4570,1.0,30.56,2 
ENP,ioos.station.NOAA.NDBC:LSNF1:1,2017-09-25T19:00:00Z,25.2350,-80.4570,1.0,31.36,2 
ENP,ioos.station.NOAA.NDBC:LSNF1:1,2017-09-25T20:00:00Z,25.2350,-80.4570,1.0,31.79,2 
ENP,ioos.station.NOAA.NDBC:LSNF1:1,2017-09-25T21:00:00Z,25.2350,-80.4570,1.0,31.88,2 
ENP,ioos.station.NOAA.NDBC:LSNF1:1,2017-09-25T22:00:00Z,25.2350,-80.4570,1.0,31.71,2 
ENP,ioos.station.NOAA.NDBC:LSNF1:1,2017-09-25T23:00:00Z,25.2350,-80.4570,1.0,31.52,2 
ENP,ioos.station.NOAA.NDBC:LSNF1:1,2017-09-26T00:00:00Z,25.2350,-80.4570,1.0,31.44,2 
ENP,ioos.station.NOAA.NDBC:LSNF1:1,2017-09-26T01:00:00Z,25.2350,-80.4570,1.0,31.21,2 
ENP,ioos.station.NOAA.NDBC:LSNF1:1,2017-09-26T03:00:00Z,25.2350,-80.4570,1.0,30.88,2 
ENP,ioos.station.NOAA.NDBC:LSNF1:1,2017-09-26T04:00:00Z,25.2350,-80.4570,1.0,30.86,2 
ENP,ioos.station.NOAA.NDBC:LSNF1:1,2017-09-26T05:00:00Z,25.2350,-80.4570,1.0,30.78,2 
ENP,ioos.station.NOAA.NDBC:LSNF1:1,2017-09-26T07:00:00Z,25.2350,-80.4570,1.0,30.57,2 
ENP,ioos.station.NOAA.NDBC:LSNF1:1,2017-09-26T08:00:00Z,25.2350,-80.4570,1.0,30.16,2 
ENP,ioos.station.NOAA.NDBC:LSNF1:1,2017-09-26T09:00:00Z,25.2350,-80.4570,1.0,29.99,2 
ENP,ioos.station.NOAA.NDBC:LSNF1:1,2017-09-26T10:00:00Z,25.2350,-80.4570,1.0,29.96,2 
ENP,ioos.station.NOAA.NDBC:LSNF1:1,2017-09-26T12:00:00Z,25.2350,-80.4570,1.0,30.31,2 
ENP,ioos.station.NOAA.NDBC:LSNF1:1,2017-09-26T13:00:00Z,25.2350,-80.4570,1.0,30.04,2 
ENP,ioos.station.NOAA.NDBC:LSNF1:1,2017-09-26T14:00:00Z,25.2350,-80.4570,1.0,29.77,2 
ENP,ioos.station.NOAA.NDBC:LSNF1:1,2017-09-26T15:00:00Z,25.2350,-80.4570,1.0,29.7,2 
ENP,ioos.station.NOAA.NDBC:LSNF1:1,2017-09-26T16:00:00Z,25.2350,-80.4570,1.0,29.86,2 
ENP,ioos.station.NOAA.NDBC:LSNF1:1,2017-09-26T17:00:00Z,25.2350,-80.4570,1.0,30.01,2 
ENP,ioos.station.NOAA.NDBC:LSNF1:1,2017-09-26T18:00:00Z,25.2350,-80.4570,1.0,30.23,2 
ENP,ioos.station.NOAA.NDBC:LSNF1:1,2017-09-26T19:00:00Z,25.2350,-80.4570,1.0,30.19,2 
ENP,ioos.station.NOAA.NDBC:LSNF1:1,2017-09-26T20:00:00Z,25.2350,-80.4570,1.0,30.34,2 
ENP,ioos.station.NOAA.NDBC:LSNF1:1,2017-09-26T21:00:00Z,25.2350,-80.4570,1.0,30.38,2 
ENP,ioos.station.NOAA.NDBC:LSNF1:1,2017-09-26T22:00:00Z,25.2350,-80.4570,1.0,30.43,2 
ENP,ioos.station.NOAA.NDBC:LSNF1:1,2017-09-26T23:00:00Z,25.2350,-80.4570,1.0,30.47,2 
ENP,ioos.station.NOAA.NDBC:LSNF1:1,2017-09-27T00:00:00Z,25.2350,-80.4570,1.0,30.6,2 
ENP,ioos.station.NOAA.NDBC:LSNF1:1,2017-09-27T01:00:00Z,25.2350,-80.4570,1.0,30.55,2 
ENP,ioos.station.NOAA.NDBC:LSNF1:1,2017-09-27T03:00:00Z,25.2350,-80.4570,1.0,30.31,2 
ENP,ioos.station.NOAA.NDBC:LSNF1:1,2017-09-27T04:00:00Z,25.2350,-80.4570,1.0,30.29,2 
ENP,ioos.station.NOAA.NDBC:LSNF1:1,2017-09-27T06:00:00Z,25.2350,-80.4570,1.0,30.18,2 
ENP,ioos.station.NOAA.NDBC:LSNF1:1,2017-09-27T07:00:00Z,25.2350,-80.4570,1.0,30.36,2 
ENP,ioos.station.NOAA.NDBC:LSNF1:1,2017-09-27T08:00:00Z,25.2350,-80.4570,1.0,30.05,2 
ENP,ioos.station.NOAA.NDBC:LSNF1:1,2017-09-27T09:00:00Z,25.2350,-80.4570,1.0,30.16,2 
ENP,ioos.station.NOAA.NDBC:LSNF1:1,2017-09-27T11:00:00Z,25.2350,-80.4570,1.0,30.15,2 
ENP,ioos.station.NOAA.NDBC:LSNF1:1,2017-09-27T12:00:00Z,25.2350,-80.4570,1.0,30.02,2 
ENP,ioos.station.NOAA.NDBC:LSNF1:1,2017-09-27T13:00:00Z,25.2350,-80.4570,1.0,30.09,2 
ENP,ioos.station.NOAA.NDBC:LSNF1:1,2017-09-27T14:00:00Z,25.2350,-80.4570,1.0,30.35,2 
ENP,ioos.station.NOAA.NDBC:LSNF1:1,2017-09-27T15:00:00Z,25.2350,-80.4570,1.0,30.26,2 
ENP,ioos.station.NOAA.NDBC:LSNF1:1,2017-09-27T16:00:00Z,25.2350,-80.4570,1.0,29.47,2 
ENP,ioos.station.NOAA.NDBC:LSNF1:1,2017-09-27T17:00:00Z,25.2350,-80.4570,1.0,29.12,2 
ENP,ioos.station.NOAA.NDBC:LSNF1:1,2017-09-27T18:00:00Z,25.2350,-80.4570,1.0,29.32,2 
ENP,ioos.station.NOAA.NDBC:LSNF1:1,2017-09-27T19:00:00Z,25.2350,-80.4570,1.0,29.35,2 
ENP,ioos.station.NOAA.NDBC:LSNF1:1,2017-09-27T20:00:00Z,25.2350,-80.4570,1.0,29.91,2 
ENP,ioos.station.NOAA.NDBC:LSNF1:1,2017-09-27T21:00:00Z,25.2350,-80.4570,1.0,30.41,2 
ENP,ioos.station.NOAA.NDBC:LSNF1:1,2017-09-27T22:00:00Z,25.2350,-80.4570,1.0,30.59,2 
ENP,ioos.station.NOAA.NDBC:LSNF1:1,2017-09-27T23:00:00Z,25.2350,-80.4570,1.0,31.01,2 
ENP,ioos.station.NOAA.NDBC:LSNF1:1,2017-09-28T00:00:00Z,25.2350,-80.4570,1.0,30.93,2 
ENP,ioos.station.NOAA.NDBC:LSNF1:1,2017-09-28T01:00:00Z,25.2350,-80.4570,1.0,30.89,2 
ENP,ioos.station.NOAA.NDBC:LSNF1:1,2017-09-28T03:00:00Z,25.2350,-80.4570,1.0,30.64,2 
ENP,ioos.station.NOAA.NDBC:LSNF1:1,2017-09-28T04:00:00Z,25.2350,-80.4570,1.0,30.46,2 
ENP,ioos.station.NOAA.NDBC:LSNF1:1,2017-09-28T06:00:00Z,25.2350,-80.4570,1.0,29.97,2 
ENP,ioos.station.NOAA.NDBC:LSNF1:1,2017-09-28T07:00:00Z,25.2350,-80.4570,1.0,29.95,2 
ENP,ioos.station.NOAA.NDBC:LSNF1:1,2017-09-28T08:00:00Z,25.2350,-80.4570,1.0,30.04,2 
ENP,ioos.station.NOAA.NDBC:LSNF1:1,2017-09-28T09:00:00Z,25.2350,-80.4570,1.0,30.04,2 
ENP,ioos.station.NOAA.NDBC:LSNF1:1,2017-09-28T11:00:00Z,25.2350,-80.4570,1.0,30.92,2 
ENP,ioos.station.NOAA.NDBC:LSNF1:1,2017-09-28T12:00:00Z,25.2350,-80.4570,1.0,30.86,2 
ENP,ioos.station.NOAA.NDBC:LSNF1:1,2017-09-28T13:00:00Z,25.2350,-80.4570,1.0,30.38,2 
ENP,ioos.station.NOAA.NDBC:LSNF1:1,2017-09-28T14:00:00Z,25.2350,-80.4570,1.0,30.22,2 
ENP,ioos.station.NOAA.NDBC:LSNF1:1,2017-09-28T15:00:00Z,25.2350,-80.4570,1.0,30.26,2 
ENP,ioos.station.NOAA.NDBC:LSNF1:1,2017-09-28T16:00:00Z,25.2350,-80.4570,1.0,30.46,2 
ENP,ioos.station.NOAA.NDBC:LSNF1:1,2017-09-28T17:00:00Z,25.2350,-80.4570,1.0,30.28,2 
ENP,ioos.station.NOAA.NDBC:LSNF1:1,2017-09-28T18:00:00Z,25.2350,-80.4570,1.0,30.61,2 
ENP,ioos.station.NOAA.NDBC:LSNF1:1,2017-09-28T19:00:00Z,25.2350,-80.4570,1.0,30.92,2 
ENP,ioos.station.NOAA.NDBC:LSNF1:1,2017-09-28T20:00:00Z,25.2350,-80.4570,1.0,31.51,2 
ENP,ioos.station.NOAA.NDBC:LSNF1:1,2017-09-28T21:00:00Z,25.2350,-80.4570,1.0,31.61,2 
ENP,ioos.station.NOAA.NDBC:LSNF1:1,2017-09-28T22:00:00Z,25.2350,-80.4570,1.0,31.49,2 
ENP,ioos.station.NOAA.NDBC:LSNF1:1,2017-09-28T23:00:00Z,25.2350,-80.4570,1.0,31.54,2 
ENP,ioos.station.NOAA.NDBC:LSNF1:1,2017-09-29T00:00:00Z,25.2350,-80.4570,1.0,31.55,2 
ENP,ioos.station.NOAA.NDBC:LSNF1:1,2017-09-29T02:00:00Z,25.2350,-80.4570,1.0,31.42,2 
ENP,ioos.station.NOAA.NDBC:LSNF1:1,2017-09-29T03:00:00Z,25.2350,-80.4570,1.0,31.28,2 
ENP,ioos.station.NOAA.NDBC:LSNF1:1,2017-09-29T04:00:00Z,25.2350,-80.4570,1.0,31.13,2 
ENP,ioos.station.NOAA.NDBC:LSNF1:1,2017-09-29T06:00:00Z,25.2350,-80.4570,1.0,30.75,2 
ENP,ioos.station.NOAA.NDBC:LSNF1:1,2017-09-29T07:00:00Z,25.2350,-80.4570,1.0,30.84,2 
ENP,ioos.station.NOAA.NDBC:LSNF1:1,2017-09-29T08:00:00Z,25.2350,-80.4570,1.0,30.74,2 
ENP,ioos.station.NOAA.NDBC:LSNF1:1,2017-09-29T09:00:00Z,25.2350,-80.4570,1.0,30.55,2 
ENP,ioos.station.NOAA.NDBC:LSNF1:1,2017-09-29T11:00:00Z,25.2350,-80.4570,1.0,30.13,2 
ENP,ioos.station.NOAA.NDBC:LSNF1:1,2017-09-29T12:00:00Z,25.2350,-80.4570,1.0,29.79,2 